[[{"header":{"parameterUnit":"m.s-1","parameterCategory":1,"la1":30.2991,"la2":30.254,"lo1":-89.0895,"lo2":-89.0444,"dy":0.0017,"dx":0.0017,"nx":28,"ny":28,"refTime":"2025-01-26T03:00:00:Z","depth":0,"parameterNumber":2,"parameterNumberName":"U-component_of_WINDS"},"data":[0,0,0,0,0,0,0,0,0,0,0,0,0,0,0,0,0,0,0,0,0,0,0,0,0,0,0,0,0,0,0,0,0,0,0,0,0,0,0,0,0,0,0,0,0,0,0,0,0,0,0,0,0,0,0,0,0,0,1.6702,1.6702,0,1.6702,1.6702,1.6702,1.6665,1.6664,1.6663,1.6662,1.6666,1.6667,1.6669,0,0,0,0,0,0,0,0,0,0,0,0,0,1.6675,1.6676,1.6702,1.6702,1.6702,1.6702,1.6702,1.6702,1.6665,1.6664,1.6663,1.6662,1.6666,1.6667,1.6669,0,0,0,0,0,0,0,0,0,0,0,0,0,1.6682,1.6676,1.6702,1.6683,1.6681,1.6702,1.6702,1.6702,1.6665,1.6664,1.6662,1.6661,1.6666,1.6667,1.6669,1.6709,0,0,1.6674,1.6674,0,0,0,0,0,0,0,0,1.6682,1.6683,1.6686,1.6684,1.6683,1.6682,1.6694,1.6705,1.6666,1.6672,1.6662,1.666,1.6673,1.6674,1.6677,1.6709,1.6709,1.6674,1.6675,1.6675,1.6676,0,0,0,0,0,0,0,1.6682,1.6683,1.6702,1.6686,1.6684,1.6677,1.6676,1.6696,1.6681,1.6671,1.6668,1.6669,1.6672,1.6676,1.6677,1.6709,1.6674,1.6675,1.6676,1.6677,1.6779,1.678,0,0,0,0,0,0,1.6683,1.6683,1.6702,1.6702,1.6678,1.6679,1.6678,1.6684,1.668,1.6678,1.667,1.6667,1.6674,1.6675,1.6677,1.6727,1.6675,1.6677,1.6678,1.6777,1.6779,1.6781,0,0,0,0,0,0,1.6682,1.6685,1.6702,1.6692,1.6693,1.6681,1.6688,1.6685,1.6688,1.668,1.6677,1.6676,1.6673,1.6675,1.6702,1.6727,1.6678,1.6679,1.6775,1.6777,1.678,1.6825,0,0,0,0,0,0,1.6682,1.6685,1.6698,1.6692,1.6694,1.6725,1.6689,1.6686,1.6691,1.6687,1.6685,1.6684,1.6672,1.67,1.6704,1.6728,1.668,1.6772,1.6776,1.6779,1.6821,1.6829,1.6835,0,0,0,0,0,1.6681,1.671,1.6699,1.6701,1.671,1.6726,1.6727,1.6712,1.6693,1.6708,1.6703,1.6684,1.6723,1.6703,1.6707,1.6732,1.6771,1.6775,1.6779,1.6818,1.6827,1.6835,0,0,0,0,0,0,1.672,1.6709,1.6696,1.6724,1.6726,1.672,1.6737,1.6722,1.673,1.6726,1.6708,1.6709,1.6739,1.6738,1.6716,1.6773,1.6744,1.6749,1.6772,1.6781,1.6788,1.6789,1.6682,0,0,0,0,0,1.6731,1.6744,1.6734,1.676,1.6762,1.675,1.6756,1.6745,1.6746,1.6747,1.6744,1.6748,1.6762,1.6771,1.6783,1.6821,1.6822,1.684,1.6847,1.6853,1.6858,1.6883,1.6892,1.6794,1.6794,1.6794,0,0,1.6756,1.6752,1.6761,1.6768,1.6768,1.6784,1.6751,1.6767,1.678,1.675,1.6776,1.6774,1.6778,1.6812,1.6826,1.6812,1.6886,1.6858,1.6863,1.6865,1.6888,1.6897,1.6905,1.6796,1.6796,1.6796,0,0,1.6809,1.6806,1.6829,1.683,1.6831,1.6823,1.6829,1.6825,1.6823,1.6848,1.6828,1.6844,1.6866,1.6871,1.6876,1.6936,1.6921,1.6941,1.6978,1.7002,1.701,1.7016,1.7041,1.705,1.6945,1.6945,1.6945,0,1.684,1.6861,1.6843,1.6862,1.6868,1.6842,1.6867,1.687,1.6875,1.6881,1.6864,1.6895,1.6896,1.6932,1.6947,1.6951,1.696,1.6941,1.701,1.7016,1.7023,1.7046,1.7055,1.6948,1.6948,1.6947,1.6947,0,1.6901,1.6916,1.6935,1.6941,1.6948,1.697,1.6959,1.6969,1.6958,1.6953,1.6982,1.6982,1.6996,1.7003,1.6992,1.704,1.7031,1.7012,1.6983,1.7035,1.7057,1.7065,1.6952,1.6951,1.695,1.6949,0,0,1.6977,1.6975,1.6982,1.6986,1.6987,1.7,1.7023,1.7035,1.7046,1.7052,1.7073,1.7095,1.7079,1.7085,1.7075,1.7096,1.7148,1.7075,1.7075,1.7091,1.7205,1.7221,1.7232,1.7137,1.7139,1.714,1.7206,0,1.7031,1.7068,1.7055,1.7094,1.711,1.7088,1.7108,1.7113,1.711,1.7125,1.7122,1.7139,1.7115,1.7119,1.7139,1.7137,1.7171,1.7132,1.716,1.7161,1.7162,1.7242,1.7258,1.732,1.7214,1.7216,1.7217,0,1.7098,1.7107,1.7148,1.715,1.7156,1.7174,1.7187,1.7201,1.7207,1.7204,1.7213,1.72,1.7226,1.7196,1.7234,1.7208,1.7219,1.7221,1.7223,1.7226,1.7193,1.7251,1.7339,1.735,1.7229,1.7228,1.7227,0,1.7154,1.7176,1.7204,1.7208,1.721,1.7224,1.7226,1.723,1.724,1.7252,1.7259,1.7274,1.7283,1.7297,1.7289,1.7267,1.733,1.7299,1.7331,1.7332,1.7346,1.7346,1.7441,1.735,1.735,1.7349,1.7349,0,1.7217,1.7244,1.723,1.7247,1.7278,1.7264,1.7296,1.7295,1.73,1.732,1.7301,1.7321,1.7309,1.7328,1.7323,1.7358,1.7361,1.7362,1.736,1.7365,1.7365,1.7373,1.737,1.7352,1.7351,1.7351,1.735,0,1.7284,1.7275,1.7305,1.7305,1.7306,1.733,1.7331,1.7349,1.7346,1.7371,1.7377,1.7372,1.7394,1.7388,1.7412,1.7409,1.7454,1.7446,1.7452,1.7451,1.7485,1.7483,1.759,1.7605,1.7502,1.7503,1.7503,0,1.7326,1.7346,1.7349,1.736,1.7363,1.7382,1.7392,1.738,1.7392,1.7403,1.7422,1.7442,1.7458,1.7496,1.7496,1.7516,1.751,1.7546,1.7513,1.7518,1.7515,1.7515,1.7519,1.7554,1.7555,1.7556,1.7556,0,1.7402,1.7398,1.7412,1.7427,1.744,1.7451,1.746,1.7472,1.7461,1.7476,1.7499,1.7511,1.7537,1.756,1.7578,1.7583,1.757,1.7567,1.7576,1.7582,1.7586,1.7588,1.7473,1.7565,1.7564,1.7563,1.7563,1.7562,1.746,1.7479,1.7484,1.7503,1.7509,1.7519,1.7538,1.7537,1.7555,1.7575,1.7567,1.7594,1.7605,1.7628,1.7636,1.7659,1.7646,1.7658,1.7662,1.7666,1.7672,1.758,1.7662,1.7662,1.7662,1.7662,1.7661,0,1.7538,1.7541,1.7558,1.7573,1.7589,1.7573,1.7584,1.7599,1.7623,1.7632,1.7649,1.7678,1.77,1.7704,1.7726,1.7744,1.7739,1.7751,1.7751,1.7753,1.7681,1.7672,1.7755,1.7755,1.7755,1.7755,1.7755,1.7755,1.758,1.7612,1.7609,1.7646,1.7649,1.7675,1.7683,1.7695,1.7703,1.7735,1.7753,1.7755,1.7764,1.7787,1.7809,1.781,1.782,1.7835,1.7834,1.7767,1.7757,1.7749,1.7741,1.7837,1.7837,1.7905,1.7906,1.7906]},{"header":{"parameterUnit":"m.s-1","parameterCategory":1,"la1":30.2991,"la2":30.254,"lo1":-89.0895,"lo2":-89.0444,"dy":0.0017,"dx":0.0017,"nx":28,"ny":28,"refTime":"2025-01-26T03:00:00:Z","depth":0,"parameterNumber":3,"parameterNumberName":"V-component_of_WINDS"},"data":[0,0,0,0,0,0,0,0,0,0,0,0,0,0,0,0,0,0,0,0,0,0,0,0,0,0,0,0,0,0,0,0,0,0,0,0,0,0,0,0,0,0,0,0,0,0,0,0,0,0,0,0,0,0,0,0,0,0,-2.9638,-2.9638,0,-2.958,-2.958,-2.9579,-2.9607,-2.9609,-2.961,-2.9612,-2.9546,-2.9543,-2.954,0,0,0,0,0,0,0,0,0,0,0,0,0,-2.9769,-2.9766,-2.9638,-2.9637,-2.9637,-2.958,-2.958,-2.9579,-2.9607,-2.9609,-2.9611,-2.9612,-2.9547,-2.9543,-2.9539,0,0,0,0,0,0,0,0,0,0,0,0,0,-2.9711,-2.9766,-2.9638,-2.9644,-2.9644,-2.9581,-2.958,-2.9579,-2.9606,-2.9609,-2.9611,-2.9613,-2.9548,-2.9544,-2.9539,-2.9464,0,0,-2.9524,-2.9522,0,0,0,0,0,0,0,0,-2.9715,-2.9707,-2.9644,-2.9644,-2.9644,-2.9603,-2.9602,-2.954,-2.9606,-2.9621,-2.9612,-2.9614,-2.9563,-2.9557,-2.9541,-2.9461,-2.9458,-2.9524,-2.9521,-2.9519,-2.9518,0,0,0,0,0,0,0,-2.9719,-2.9709,-2.9615,-2.9643,-2.9643,-2.9648,-2.9643,-2.959,-2.9579,-2.9619,-2.9621,-2.9615,-2.9563,-2.9545,-2.954,-2.9457,-2.9524,-2.952,-2.9517,-2.9515,-2.9316,-2.9313,0,0,0,0,0,0,-2.9723,-2.9712,-2.9617,-2.9613,-2.9686,-2.9644,-2.9638,-2.9614,-2.958,-2.9577,-2.9613,-2.9616,-2.9552,-2.9545,-2.9537,-2.9449,-2.9519,-2.9515,-2.9512,-2.9318,-2.9315,-2.9313,0,0,0,0,0,0,-2.9726,-2.9714,-2.9619,-2.9663,-2.9652,-2.964,-2.9612,-2.9612,-2.9594,-2.9575,-2.9573,-2.9597,-2.9554,-2.9544,-2.9483,-2.9447,-2.9513,-2.9508,-2.9321,-2.9317,-2.9314,-2.9271,0,0,0,0,0,0,-2.9729,-2.9715,-2.9687,-2.9663,-2.9649,-2.9567,-2.961,-2.9609,-2.9587,-2.959,-2.956,-2.9557,-2.9555,-2.949,-2.9479,-2.9442,-2.9505,-2.9324,-2.9319,-2.9315,-2.9276,-2.9267,-2.9259,0,0,0,0,0,-2.9734,-2.9676,-2.9686,-2.9674,-2.9615,-2.9565,-2.9557,-2.9558,-2.9584,-2.9555,-2.9543,-2.9558,-2.9453,-2.9484,-2.9471,-2.9432,-2.9326,-2.9321,-2.9315,-2.928,-2.9268,-2.9259,0,0,0,0,0,0,-2.9693,-2.9673,-2.9683,-2.9616,-2.9592,-2.957,-2.9534,-2.9546,-2.9513,-2.9518,-2.9518,-2.9511,-2.9449,-2.9434,-2.9468,-2.9359,-2.9394,-2.9385,-2.9371,-2.936,-2.9352,-2.9356,-2.9501,0,0,0,0,0,-2.9677,-2.964,-2.9623,-2.9565,-2.9553,-2.9546,-2.9524,-2.9527,-2.9502,-2.9491,-2.9475,-2.9448,-2.941,-2.9384,-2.9348,-2.9274,-2.9268,-2.9242,-2.9233,-2.9226,-2.9219,-2.9181,-2.9169,-2.9294,-2.9295,-2.9295,0,0,-2.9642,-2.9626,-2.9602,-2.9557,-2.9539,-2.95,-2.9537,-2.9493,-2.9464,-2.9484,-2.9427,-2.9414,-2.9384,-2.9318,-2.9287,-2.9304,-2.9183,-2.9219,-2.9214,-2.921,-2.9174,-2.9162,-2.9151,-2.9291,-2.9291,-2.9292,0,0,-2.9558,-2.9543,-2.9494,-2.9476,-2.945,-2.9446,-2.9434,-2.941,-2.9403,-2.9347,-2.9362,-2.9326,-2.9259,-2.9238,-2.9219,-2.9131,-2.9143,-2.9118,-2.9073,-2.9036,-2.9026,-2.9018,-2.8987,-2.8976,-2.9111,-2.9111,-2.9111,0,-2.9517,-2.946,-2.9466,-2.9422,-2.9402,-2.9422,-2.9372,-2.9354,-2.9316,-2.9301,-2.9321,-2.924,-2.9221,-2.915,-2.9129,-2.9112,-2.9099,-2.9121,-2.9028,-2.9019,-2.9011,-2.8981,-2.897,-2.9108,-2.9109,-2.9109,-2.9109,0,-2.9412,-2.9372,-2.9336,-2.9302,-2.9278,-2.923,-2.9228,-2.9203,-2.9209,-2.9203,-2.9145,-2.9124,-2.9084,-2.9068,-2.9072,-2.8998,-2.901,-2.9028,-2.9063,-2.8996,-2.8969,-2.8957,-2.9104,-2.9105,-2.9106,-2.9107,0,0,-2.9298,-2.9272,-2.9258,-2.9244,-2.9218,-2.9186,-2.9141,-2.9105,-2.9083,-2.9057,-2.9019,-2.8964,-2.8982,-2.896,-2.8962,-2.8929,-2.8862,-2.8952,-2.8952,-2.8937,-2.8781,-2.8767,-2.8754,-2.8871,-2.8869,-2.8867,-2.8784,0,-2.9213,-2.9136,-2.9141,-2.9067,-2.9031,-2.9051,-2.9012,-2.8991,-2.8984,-2.8952,-2.8944,-2.8905,-2.8932,-2.8919,-2.8888,-2.8877,-2.8831,-2.8883,-2.8834,-2.8832,-2.8841,-2.874,-2.8724,-2.8647,-2.8773,-2.8771,-2.877,0,-2.9103,-2.9077,-2.9001,-2.8983,-2.8968,-2.8932,-2.8901,-2.887,-2.8847,-2.8844,-2.8822,-2.883,-2.8783,-2.882,-2.8756,-2.8791,-2.8772,-2.8764,-2.8761,-2.8756,-2.8797,-2.8732,-2.8622,-2.861,-2.8753,-2.8754,-2.8755,0,-2.9029,-2.8974,-2.8922,-2.891,-2.8887,-2.8862,-2.8851,-2.883,-2.8809,-2.8781,-2.8768,-2.8734,-2.8715,-2.8688,-2.8687,-2.8714,-2.8623,-2.8659,-2.8619,-2.8619,-2.8598,-2.8599,-2.8483,-2.8585,-2.8585,-2.8586,-2.8586,0,-2.8934,-2.8886,-2.8889,-2.8857,-2.8805,-2.8811,-2.8759,-2.875,-2.8733,-2.8699,-2.8713,-2.868,-2.8681,-2.8648,-2.8647,-2.8594,-2.8585,-2.8582,-2.8582,-2.858,-2.8581,-2.8567,-2.8572,-2.8583,-2.8583,-2.8584,-2.8584,0,-2.8841,-2.8842,-2.8787,-2.8771,-2.8766,-2.8728,-2.8714,-2.8684,-2.868,-2.8637,-2.8627,-2.862,-2.8582,-2.8579,-2.8533,-2.8533,-2.847,-2.8475,-2.8478,-2.8479,-2.844,-2.8443,-2.831,-2.8294,-2.8407,-2.8405,-2.8405,0,-2.878,-2.8745,-2.8727,-2.8707,-2.8695,-2.8661,-2.8641,-2.8646,-2.8624,-2.8597,-2.857,-2.8534,-2.8505,-2.8444,-2.8433,-2.8399,-2.8405,-2.8361,-2.8399,-2.84,-2.8405,-2.8407,-2.8404,-2.8353,-2.8351,-2.835,-2.8349,0,-2.8672,-2.8675,-2.8646,-2.8618,-2.8594,-2.8571,-2.855,-2.8532,-2.8535,-2.8509,-2.8472,-2.845,-2.8407,-2.837,-2.8338,-2.8325,-2.8337,-2.8338,-2.8327,-2.8325,-2.8328,-2.8327,-2.8458,-2.834,-2.8341,-2.8342,-2.8342,-2.8343,-2.8594,-2.8564,-2.8548,-2.8516,-2.8502,-2.8482,-2.8454,-2.8448,-2.8417,-2.8384,-2.8388,-2.8347,-2.8327,-2.8285,-2.827,-2.8238,-2.8252,-2.8236,-2.8232,-2.8228,-2.8224,-2.8334,-2.8231,-2.8232,-2.8232,-2.8232,-2.8232,0,-2.8487,-2.8479,-2.8449,-2.8421,-2.8396,-2.8413,-2.8391,-2.8369,-2.8333,-2.8314,-2.8287,-2.8245,-2.8211,-2.82,-2.8167,-2.8143,-2.8148,-2.8134,-2.8136,-2.8133,-2.8213,-2.8226,-2.8131,-2.8131,-2.8131,-2.8131,-2.8131,-2.8131,-2.8429,-2.838,-2.8381,-2.8326,-2.8317,-2.8279,-2.8265,-2.8248,-2.8233,-2.8187,-2.816,-2.8154,-2.8138,-2.8104,-2.8074,-2.8071,-2.8059,-2.8042,-2.8042,-2.8117,-2.8127,-2.8137,-2.8149,-2.804,-2.8039,-2.7965,-2.7965,-2.7964]}]]